Overview Statistics Trail Chart Weather Telemetry Raw packets
 

This is the latest recevied weather packets stored in our database for station/object KD4EG. If no packets are shown the sender has not sent any weather packets the latest 10 day(s).

<< 55 56 57 58 59 60 61 >>
Time Temp. Humidity Pressure Rain* Wind** Luminosity Snow
1788272485 28.33° C 73% 1022.5 hPa 0 mm - 428 W/m² -
1788272180 27.78° C 74% 1022.6 hPa 0 mm - 621 W/m² -
1788271874 27.78° C 74% 1022.7 hPa 0 mm - 573 W/m² -
1788271573 27.22° C 75% 1022.7 hPa 0 mm - 544 W/m² -
1788271273 27.22° C 77% 1022.8 hPa 0 mm - 514 W/m² -
1788270972 26.67° C 77% 1022.7 hPa 0 mm - 472 W/m² -
1788270685 26.67° C 78% 1022.9 hPa 0 mm - 430 W/m² -
1788270363 26.67° C 78% 1022.9 hPa 0 mm - 397 W/m² -
1788270058 26.67° C 79% 1022.7 hPa 0 mm - 378 W/m² -
1788269757 25.56° C 80% 1022.9 hPa 0 mm - 350 W/m² -
1788269456 25.56° C 80% 1023.1 hPa 0 mm - 341 W/m² -
1788269151 25° C 82% 1023.1 hPa 0 mm - 307 W/m² -
1788268851 25° C 82% 1023.1 hPa 0 mm - 293 W/m² -
1788268551 25° C 83% 1023.2 hPa 0 mm - 286 W/m² -
1788268245 25° C 83% 1023 hPa 0 mm - 259 W/m² -
1788267940 24.44° C 84% 1023.2 hPa 0 mm - 248 W/m² -
1788267638 24.44° C 85% 1023 hPa 0 mm - 226 W/m² -
1788267349 24.44° C 84% 1023.4 hPa 0 mm - 201 W/m² -
1788267033 23.89° C 85% 1023.2 hPa 0 mm - 202 W/m² -
1788266732 23.89° C 86% 1023.4 hPa 0 mm - 154 W/m² -
1788266427 23.89° C 86% 1023.3 hPa 0 mm - 175 W/m² -
1788266122 23.33° C 88% 1023.2 hPa 0 mm - 161 W/m² -
1788265821 22.78° C 88% 1023.3 hPa 0 mm - 152 W/m² -
1788265520 22.78° C 89% 1023.1 hPa 0 mm - 129 W/m² -
1788265214 22.78° C 90% 1022.9 hPa 0 mm - 122 W/m² -

* Rain latest hour (hover to see other rain measurements)
** Current wind speed in m/s (hover to see current wind gust speed)